Cincinnati, OH

8:40 AM EDT on September 18, 2019 (GMT -0400)
Cincinnati Municipal-Lunken

Weather History for KLUK - July, 2019

Change the Weather History Date:

Wednesday, July 24, 2019

  Actual Average Record
Temperature  
Mean Temperature 69 °F -  
Max Temperature 81 °F 87 °F 100 °F (1965)
Min Temperature 57 °F 67 °F 55 °F (2000)
Cooling Degree Days 4    
Growing Degree Days 19 (Base 50)    
Moisture  
Dew Point 57 °F    
Average Humidity 72    
Maximum Humidity 97    
Minimum Humidity 39    
Precipitation  
Precipitation 0.00 in - - ()
Sea Level Pressure  
Sea Level Pressure 30.09 in    
Wind  
Wind Speed 3 mph (NE)    
Max Wind Speed 10 mph    
Max Gust Speed 22 mph    
Visibility 10 miles    
Events      
Averages and records for this station are not official NWS values.
T = Trace of Precipitation, MM = Missing Value Source: NWS Daily Summary

Daily Weather History Graph

Daily Weather History Graph

Search for Another Location

Airport or City:

Astronomy

Jul. 24, 2019 Rise Set
Actual Time 6:31 AM EDT 8:56 PM EDT
Civil Twilight 6:00 AM EDT 9:27 PM EDT
Nautical Twilight 5:22 AM EDT 10:04 PM EDT
Astronomical Twilight 4:40 AM EDT 10:46 PM EDT
Moon 12:47 AM EDT (7/24) 1:38 PM EDT (7/24)
Length of Visible Light 15h 26m
Length of Day
14h 25m
Waning Gibbous, 54% of the Moon is Illuminated
Jul 24
Waning Gibbous
Jul 24
Last Quarter
Jul 31
New
Aug 7
First Quarter
Aug 15
Full

Hourly Weather History & Observations

Time (EDT) Temp. Heat Index Dew Point Humidity Pressure Visibility Wind Dir Wind Speed Gust Speed Precip Events Conditions
12:53 AM 61.0 °F - 57.9 °F 90% 30.06 in 10.0 mi Calm Calm - N/A   Clear
1:53 AM 59.0 °F - 57.0 °F 93% 30.05 in 10.0 mi Calm Calm - N/A   Clear
2:53 AM 59.0 °F - 57.0 °F 93% 30.05 in 10.0 mi Variable 4.6 mph - N/A   Clear
3:53 AM 57.9 °F - 57.0 °F 97% 30.05 in 10.0 mi Calm Calm - N/A   Clear
4:53 AM 57.0 °F - 55.9 °F 96% 30.05 in 10.0 mi Calm Calm - N/A   Clear
5:53 AM 57.0 °F - 55.9 °F 96% 30.06 in 10.0 mi Calm Calm - N/A   Clear
6:53 AM 57.0 °F - 55.9 °F 96% 30.08 in 10.0 mi NNE 4.6 mph - N/A   Clear
7:53 AM 61.0 °F - 59.0 °F 93% 30.09 in 10.0 mi Calm Calm - N/A   Clear
8:53 AM 66.0 °F - 60.1 °F 81% 30.12 in 10.0 mi Calm Calm - N/A   Clear
9:53 AM 70.0 °F - 60.1 °F 71% 30.13 in 10.0 mi East 3.5 mph - N/A   Clear
10:53 AM 73.9 °F - 59.0 °F 59% 30.14 in 10.0 mi NE 8.1 mph - N/A   Clear
11:53 AM 75.0 °F - 57.0 °F 53% 30.13 in 10.0 mi NNE 6.9 mph - N/A   Partly Cloudy
12:53 PM 77.0 °F - 57.9 °F 52% 30.12 in 10.0 mi NE 9.2 mph - N/A   Partly Cloudy
1:53 PM 77.0 °F - 55.9 °F 48% 30.11 in 10.0 mi North 9.2 mph 21.9 mph N/A   Scattered Clouds
2:53 PM 79.0 °F - 55.0 °F 44% 30.10 in 10.0 mi NNW 10.4 mph 21.9 mph N/A   Scattered Clouds
3:53 PM 80.1 °F 80.0 °F 54.0 °F 40% 30.09 in 10.0 mi Variable 6.9 mph - N/A   Scattered Clouds
4:53 PM 80.1 °F 79.9 °F 53.1 °F 39% 30.08 in 10.0 mi NE 6.9 mph - N/A   Scattered Clouds
5:53 PM 81.0 °F 80.5 °F 54.0 °F 39% 30.08 in 10.0 mi NNE 5.8 mph - N/A   Scattered Clouds
6:53 PM 77.0 °F - 59.0 °F 54% 30.08 in 10.0 mi ENE 4.6 mph - N/A   Scattered Clouds
7:53 PM 75.9 °F - 57.9 °F 54% 30.09 in 10.0 mi ENE 5.8 mph - N/A   Partly Cloudy
8:53 PM 70.0 °F - 61.0 °F 73% 30.11 in 10.0 mi ENE 3.5 mph - N/A   Clear
9:53 PM 66.9 °F - 60.1 °F 79% 30.12 in 10.0 mi Calm Calm - N/A   Clear
10:53 PM 63.0 °F - 60.1 °F 90% 30.13 in 10.0 mi Calm Calm - N/A   Clear
11:53 PM 62.1 °F - 59.0 °F 90% 30.13 in 10.0 mi Calm Calm - N/A   Clear